This is the latest recevied weather packets stored in our database for station/object OK1TOM-6. If no packets are shown the sender has not sent any weather packets the latest 10 day(s).
| Time | Temp. | Humidity | Pressure | Rain* | Wind** | Luminosity | Snow |
|---|---|---|---|---|---|---|---|
| 1778103919 | 10° C | 95% | 1009.8 hPa | 3.3 mm | - | - | - |
| 1778103316 | 10° C | 95% | 1009.8 hPa | 2.79 mm | - | - | - |
| 1778102773 | 10° C | 95% | 1009.9 hPa | 2.29 mm | - | - | - |
| 1778102169 | 10.56° C | 94% | 1010 hPa | 1.78 mm | - | - | - |
| 1778101566 | 10.56° C | 93% | 1010.1 hPa | 1.02 mm | - | - | - |
| 1778100963 | 11.11° C | 93% | 1009.9 hPa | 0.25 mm | - | - | - |
| 1778100359 | 11.11° C | 93% | 1009.4 hPa | 0.25 mm | - | - | - |
| 1778099756 | 11.11° C | 96% | 1009 hPa | 0.51 mm | - | - | - |
| 1778099152 | 10.56° C | 96% | 1008.9 hPa | 1.02 mm | - | - | - |
| 1778098549 | 11.11° C | 96% | 1008.8 hPa | 1.02 mm | - | - | - |
| 1778097946 | 11.11° C | 96% | 1008.8 hPa | 1.52 mm | - | - | - |
| 1778097342 | 11.11° C | 95% | 1008.8 hPa | 1.52 mm | - | - | - |
| 1778096739 | 11.67° C | 94% | 1008.9 hPa | 1.52 mm | - | - | - |
| 1778096135 | 11.67° C | 91% | 1008.9 hPa | 1.52 mm | - | - | - |
| 1778095532 | 11.67° C | 90% | 1008.9 hPa | 1.27 mm | - | - | - |
| 1778094928 | 12.22° C | 90% | 1008.8 hPa | 1.27 mm | - | - | - |
| 1778094325 | 12.22° C | 90% | 1008.7 hPa | 0.51 mm | - | - | - |
| 1778093722 | 12.22° C | 90% | 1008.6 hPa | 0.51 mm | - | - | - |
| 1778093118 | 12.78° C | 88% | 1008.5 hPa | 0.25 mm | - | - | - |
| 1778092575 | 13.33° C | 82% | 1008.4 hPa | 0 mm | - | - | - |
| 1778091971 | 13.33° C | 80% | 1008 hPa | 0 mm | - | - | - |
| 1778091368 | 13.33° C | 81% | 1007.9 hPa | 0 mm | - | - | - |
| 1778090765 | 13.33° C | 79% | 1007.9 hPa | 0 mm | - | - | - |
| 1778090161 | 13.89° C | 79% | 1007.8 hPa | 0 mm | - | - | - |
| 1778089558 | 13.89° C | 77% | 1007.7 hPa | 0 mm | - | - | - |
* Rain latest hour (hover to see other rain measurements)
** Current wind speed in m/s (hover to see current wind gust speed)